Regional Weather Roundup
Issued by NWS

Home | Current Version | Previous Version | Graphics & Text | Print | Product List | Glossary On
Versions: 1 2 3 4 5 6 7 8 9 10 11 12 13 14 15 16 17 18 19 20 21 22 23 24 25 26 27 28 29 30 31 32 33 34 35 36 37 38 39 40 41 42 43 44 45 46 47 48 49 50
000
ASUS43 KIND 250559
RWRIN

WEATHER ROUNDUP FOR INDIANA
NATIONAL WEATHER SERVICE INDIANAPOLIS IN
200 AM EDT FRI MAY 25 2018

NOTE: "FAIR" INDICATES FEW OR NO CLOUDS BELOW 12,000 FEET WITH NO
SIGNIFICANT WEATHER AND/OR OBSTRUCTIONS TO VISIBILITY.

* - STATION DOES NOT REPORT WEATHER SUCH AS PRECIPITATION OR FOG.

+ - STATION NOT QUALITY CONTROLLED BY THE NATIONAL WEATHER SERVICE.
    USE DATA WITH CAUTION...ESPECIALLY DEWPOINT AND RELATIVE
    HUMIDITY OBSERVATIONS.

INZ001>003-010>013-019-020-250700-
NORTHWEST INDIANA

CITY           SKY/WX    TMP DP  RH WIND       PRES   REMARKS
MICHIGAN CITY+ FAIR      61  52  72 CALM      30.05S
MONTICELLO +   FAIR      61  54  77 CALM      30.05S
6HR MIN TEMP:  60; 6HR MAX TEMP:  77;


$$

LMZ046-743>745-250700-
SOUTHERN LAKE MICHIGAN

STATION/POSITION TIME  TEMP    WIND        PRES    WAVE
                       AIR SEA DIR/SP/G            HT
                 (UTC) (F)     (DEG/KT/KT) (MB)    (FT)
BURNS HARBOR     0540   73     170/  4/ 11 1017.6R
MICHIGAN CITY    0530   73     140/ 11/ 12   N/A
5NW MICH CITY    0550   66 60  200/  4/  4   N/A     0

$$

INZ004-005-014>016-021>024-250700-
NORTH CENTRAL INDIANA

CITY           SKY/WX    TMP DP  RH WIND       PRES   REMARKS
GOSHEN         FAIR      59  56  89 CALM      30.06F
6HR MIN TEMP:  59; 6HR MAX TEMP:  79;

PERU/GRISSOM   FAIR      64  51  64 SE5       30.06F
6HR MIN TEMP:  61; 6HR MAX TEMP:  80;

SOUTH BEND     FAIR      60  53  77 CALM      30.06F
6HR MIN TEMP:  60; 6HR MAX TEMP:  79;

WARSAW +       FAIR      57  54  88 CALM      30.07S

$$

INZ006>009-017-018-025>027-250700-
NORTHEAST INDIANA

CITY           SKY/WX    TMP DP  RH WIND       PRES   REMARKS
ANGOLA *+        N/A     57  55  94 CALM      30.07S
AUBURN +       FAIR      55  52  88 CALM      30.08F
FORT WAYNE     FAIR      61  52  72 CALM      30.08F
6HR MIN TEMP:  60; 6HR MAX TEMP:  81;

HUNTINGTON +   FAIR      59  56  91 CALM      30.06F
6HR MIN TEMP:  58; 6HR MAX TEMP:  78;

KENDALLVILLE + FAIR     N/A N/A N/A CALM      30.08S

$$

INZ028-029-035-036-043>045-051>053-250700-
WEST CENTRAL INDIANA

CITY           SKY/WX    TMP DP  RH WIND       PRES   REMARKS
CRAWFORDSVL +  FAIR      59  53  79 CALM      30.07S
6HR MIN TEMP:  58; 6HR MAX TEMP:  80;

GREENCASTLE +  FAIR      59  52  77 CALM      30.08S
LAFAYETTE      FAIR      59  53  80 CALM      30.05S
6HR MIN TEMP:  58; 6HR MAX TEMP:  81;

TERRE HAUTE    FAIR      61  56  83 CALM      30.06S
6HR MIN TEMP:  61; 6HR MAX TEMP:  82;


$$

INZ030>032-037>040-046>048-054>057-064-065-250700-
CENTRAL INDIANA

CITY           SKY/WX    TMP DP  RH WIND       PRES   REMARKS
ANDERSON       FAIR      59  53  80 CALM      30.08F
FRANKFORT +    FAIR      63  52  66 SE3       30.08S
6HR MIN TEMP:  63; 6HR MAX TEMP:  85;

GREENWOOD *+   FAIR      62  55  77 CALM      30.08F
INDIANAPOLIS   FAIR      70  53  54 CALM      30.07F
6HR MIN TEMP:  68; 6HR MAX TEMP:  80;

-EAGLE CREEK   FAIR      65  55  70 CALM      30.06F
6HR MIN TEMP:  63; 6HR MAX TEMP:  82;

KOKOMO +       FAIR      64  52  64 CALM      30.07F
6HR MIN TEMP:  63; 6HR MAX TEMP:  80;

SHELBYVILLE    FAIR      63  55  75 E5        30.07F
6HR MIN TEMP:  63; 6HR MAX TEMP:  83;


$$

INZ033-034-041-042-049-050-058-059-250700-
EAST CENTRAL INDIANA

CITY           SKY/WX    TMP DP  RH WIND       PRES   REMARKS
MUNCIE         FAIR      61  53  75 CALM      30.07F
6HR MIN TEMP:  61; 6HR MAX TEMP:  83;

RICHMOND +     FAIR      61  55  82 SE5       30.09F

$$

INZ060-061-067>069-081>083-085>088-250700-
SOUTHWEST INDIANA

CITY           SKY/WX    TMP DP  RH WIND       PRES   REMARKS
EVANSVILLE     FAIR      66  61  84 CALM      30.05F
6HR MIN TEMP:  66; 6HR MAX TEMP:  83;

HUNTINGBURG +  FAIR      62  59  90 CALM      30.06F
6HR MIN TEMP:  62; 6HR MAX TEMP:  82;

WASHINGTON +   FAIR      64  55  75 CALM      30.05F
6HR MIN TEMP:  63; 6HR MAX TEMP:  82;


$$

INZ062-063-066-070>080-084-089>092-250700-
SOUTH CENTRAL AND SOUTHEAST INDIANA

CITY           SKY/WX    TMP DP  RH WIND       PRES   REMARKS
BLOOMINGTON    FAIR      61  57  87 CALM      30.07F
6HR MIN TEMP:  60; 6HR MAX TEMP:  80;

FRENCH LICK *+ FAIR      64  46  52 CALM      30.08S
SEYMOUR +      FAIR      63  57  82 CALM      30.07S

$$




USA.gov is the U.S. government's official web portal to all federal, state and local government web resources and services.